Bennington, VT

2:27 PM EST on December 07, 2019 (GMT -0500)
Morse State

Weather History for KDDH - September, 2019

Change the Weather History Date:

Friday, September 6, 2019

  Actual Average Record
Temperature  
Mean Temperature 57 °F 62 °F  
Max Temperature 69 °F 74 °F 88 °F (2018)
Min Temperature 44 °F 51 °F 34 °F (2000)
Degree Days  
Heating Degree Days 8 4  
Month to date heating degree days 22 21  
Since 1 July heating degree days 57 93  
Cooling Degree Days 0 1  
Month to date cooling degree days 6 10  
Year to date cooling degree days 357 298  
Growing Degree Days 7 (Base 50)    
Moisture  
Dew Point 47 °F    
Average Humidity 73    
Maximum Humidity 93    
Minimum Humidity 52    
Precipitation  
Precipitation T in 0.10 in 2.25 in (2008)
Month to date precipitation 1.46 0.61  
Year to date precipitation 28.93 28.15  
Sea Level Pressure  
Sea Level Pressure 29.97 in    
Wind  
Wind Speed 5 mph (ESE)    
Max Wind Speed 16 mph    
Max Gust Speed 22 mph    
Visibility 10 miles    
Events      
T = Trace of Precipitation, MM = Missing Value Source: NWS Daily Summary

Daily Weather History Graph

Daily Weather History Graph

Search for Another Location

Airport or City:

Astronomy

Sep. 06, 2019 Rise Set
Actual Time 6:22 AM EDT 7:19 PM EDT
Civil Twilight 5:53 AM EDT 7:48 PM EDT
Nautical Twilight 5:19 AM EDT 8:22 PM EDT
Astronomical Twilight 4:43 AM EDT 8:58 PM EDT
Moon 2:39 PM EDT (9/6) No Moon Set
Length of Visible Light 13h 54m
Length of Day
12h 56m
First Quarter, 55% of the Moon is Illuminated
Sep 6
First Quarter
Sep 14
Full
Sep 21
Last Quarter
Sep 28
New
Oct 5
First Quarter

Hourly Weather History & Observations

Time (EDT) Temp. Windchill Dew Point Humidity Pressure Visibility Wind Dir Wind Speed Gust Speed Precip Events Conditions
12:54 AM 48.9 °F - 46.9 °F 93% 30.08 in 10.0 mi Calm Calm - N/A   Clear
1:54 AM 48.9 °F - 46.9 °F 93% 30.07 in 10.0 mi South 4.6 mph - N/A   Clear
2:54 AM 48.0 °F - 46.0 °F 93% 30.05 in 10.0 mi Calm Calm - N/A   Clear
3:54 AM 46.0 °F 43.9 °F 44.1 °F 93% 30.05 in 10.0 mi SSE 4.6 mph - N/A   Clear
4:54 AM 46.0 °F - 43.0 °F 89% 30.05 in 10.0 mi Calm Calm - N/A   Clear
5:54 AM 46.0 °F - 43.0 °F 89% 30.05 in 10.0 mi Calm Calm - N/A   Clear
6:54 AM 46.0 °F - 43.0 °F 89% 30.06 in 10.0 mi Calm Calm - N/A   Clear
7:54 AM 53.1 °F - 48.9 °F 86% 30.05 in 10.0 mi Calm Calm - N/A   Clear
8:54 AM 59.0 °F - 51.1 °F 75% 30.04 in 10.0 mi Calm Calm - N/A   Clear
9:54 AM 64.9 °F - 50.0 °F 58% 30.03 in 10.0 mi East 8.1 mph - N/A   Clear
10:54 AM 66.9 °F - 50.0 °F 54% 30.01 in 10.0 mi East 11.5 mph 19.6 mph N/A   Clear
11:54 AM 68.0 °F - 51.1 °F 55% 29.99 in 10.0 mi Variable 6.9 mph - N/A   Clear
12:54 PM 66.9 °F - 48.9 °F 52% 29.98 in 10.0 mi ESE 10.4 mph 19.6 mph N/A   Clear
1:54 PM 66.9 °F - 50.0 °F 54% 29.96 in 10.0 mi ESE 13.8 mph 20.7 mph N/A   Clear
2:54 PM 68.0 °F - 52.0 °F 56% 29.93 in 10.0 mi Variable 4.6 mph - N/A   Clear
3:54 PM 66.0 °F - 50.0 °F 56% 29.91 in 10.0 mi ESE 9.2 mph - N/A   Scattered Clouds
4:54 PM 66.0 °F - 50.0 °F 56% 29.92 in 10.0 mi East 9.2 mph - N/A   Clear
5:54 PM 66.0 °F - 50.0 °F 56% 29.91 in 10.0 mi East 3.5 mph - N/A   Partly Cloudy
6:54 PM 63.0 °F - 48.0 °F 58% 29.91 in 10.0 mi ESE 9.2 mph - N/A   Clear
7:54 PM 61.0 °F - 46.9 °F 60% 29.88 in 10.0 mi Variable 5.8 mph - N/A   Clear
8:54 PM 61.0 °F - 46.0 °F 58% 29.85 in 10.0 mi Variable 4.6 mph 17.3 mph N/A   Clear
9:54 PM 61.0 °F - 44.1 °F 54% 29.86 in 10.0 mi Variable 6.9 mph - N/A   Overcast
10:54 PM 60.1 °F - 45.0 °F 57% 29.87 in 10.0 mi Calm Calm - N/A   Overcast
11:54 PM 60.1 °F - 44.1 °F 55% 29.85 in 10.0 mi East 9.2 mph - N/A   Mostly Cloudy